Regional Weather Roundup
Issued by NWS

Home | Current Version | Previous Version | Graphics & Text | Print | Product List | Glossary On
Versions: 1 2 3 4 5 6 7 8 9 10 11 12 13 14 15 16 17 18 19 20 21 22 23 24 25 26 27 28 29 30 31 32 33 34 35 36 37 38 39 40 41 42 43 44 45 46 47 48 49 50
000
ASUS43 KMKX 262021
RWRWI

WISCONSIN REGIONAL WEATHER ROUNDUP
NATIONAL WEATHER SERVICE MILWAUKEE/SULLIVAN WI
300 PM CDT THU MAY 26 2016

NOTE: "FAIR" INDICATES FEW OR NO CLOUDS BELOW 12,000 FEET WITH NO
SIGNIFICANT WEATHER AND/OR OBSTRUCTIONS TO VISIBILITY.

WIZ001-002-006>008-014>016-023>028-262100-
NORTHWEST WISCONSIN

CITY           SKY/WX    TMP DP  RH WIND       PRES   REMARKS
SUPERIOR ARPT  CLOUDY    55  50  83 NE10      29.82S
ASHLAND        PTSUNNY   64  59  83 NW6       29.82R
HAYWARD        PTSUNNY   75  57  53 VRB5      29.80R
SIREN          FAIR      78  54  42 W10       29.79S
CUMBERLAND     FAIR      77  54  44 SW16G22   29.81S
RICE LAKE      PTSUNNY   78  56  45 S9        29.82S
CHETEK         FAIR      78  59  51 W7        29.82S
LADYSMITH      FAIR      77  58  51 SW10      29.84R
EAU CLAIRE     FAIR      79  58  48 SW14G21   29.81S HX  80
MENOMONIE      FAIR      81  55  40 SW12G18   29.82S HX  81
NEW RICHMOND   FAIR      80  47  31 W17       29.81F
OSCEOLA        FAIR      79  53  39 SW17      29.83S
$$

WIZ003>005-009-010-017-018-262100-
NORTH CENTRAL WISCONSIN

CITY           SKY/WX    TMP DP  RH WIND       PRES   REMARKS
MANITOWISH WTR NOT AVBL
ARBOR VITAE    PTSUNNY   72  61  69 CALM      29.82F
WOODRUFF       PTSUNNY   72  61  69 CALM      29.82F
RHINELANDER    PTSUNNY   70  59  68 CALM      29.84F
EAGLE RIVER      N/A     69  58  67 CALM      29.83S
LAND O LAKES   FAIR      69  61  76 S3        29.84S
PHILLIPS       PTSUNNY   74  60  61 W6        29.81S
TOMAHAWK       CLOUDY    73  60  63 SW6       29.83S
MEDFORD        FAIR      73  60  65 W13       29.85R
MERRILL        FAIR      74  61  63 W13       29.84R
$$

WIZ029-030-035-036-043>047-262100-
CENTRAL WISCONSIN

CITY           SKY/WX    TMP DP  RH WIND       PRES   REMARKS
WAUSAU         FAIR      77  59  53 SW14      29.83R
MOSINEE        PTSUNNY   73  63  68 W15G21    29.86R
MARSHFIELD     FAIR      77  56  48 W15G21    29.85R
STEVENS POINT  FAIR      75  55  49 W13G23    29.85R
WAUPACA        FAIR      81  59  46 W14G20    29.84R HX  81
WAUTOMA        FAIR      81  59  47 W15G22    29.84R HX  81
WISC RAPIDS    FAIR      80  54  40 W14       29.85R HX  80
CAMP DOUGLAS   MOSUNNY   79  68  69 W15       29.85S HX  81
$$

WIZ011>013-019>022-031-037>040-048>050-262100-
NORTHEAST WISCONSIN

CITY           SKY/WX    TMP DP  RH WIND       PRES   REMARKS
ANTIGO         FAIR      72  62  71 W8        29.85R
SHAWANO        PTSUNNY   78  61  55 W9G17     29.82S
OCONTO         FAIR      78  64  61 SW14G20   29.80S
STURGEON BAY   NOT AVBL
GREEN BAY      FAIR      79  62  56 W15       29.82R HX  80
MANITOWOC      FAIR      81  59  47 W18G32    29.82R HX  81
APPLETON       MOSUNNY   77  57  50 W14G22    29.82R
CLINTONVILLE   PTSUNNY   77  57  50 SW13G23   29.83R
OSHKOSH        FAIR      79  59  50 W8        29.83R HX  80
$$

WIZ032>034-041-042-053>061-262100-
SOUTHWEST WISCONSIN

CITY           SKY/WX    TMP DP  RH WIND       PRES   REMARKS
LA CROSSE      FAIR      83  59  44 SW16      29.83S HX  83
SPARTA         FAIR      79  59  50 W10       29.85F HX  80
VIROQUA        FAIR      78  59  52 SW15      29.88F
BOSCOBEL       FAIR      84  56  38 SW12G21   29.85F HX  83
PRAIRIE DU CHI FAIR      82  51  33 SW10      29.85F HX  81
PLATTEVILLE    FAIR      83  53  34 W16       29.87F HX  82
$$

WIZ056-057-062-063-064-067-068-262100-
SOUTH CENTRAL WISCONSIN

CITY           SKY/WX    TMP DP  RH WIND       PRES   REMARKS
REEDSBURG      FAIR      80  60  49 SW10G20   29.86R HX  81
BARABOO/DELLS  FAIR      80  56  43 SW12G21   29.86S HX  80
LONE ROCK      FAIR      85  54  34 W16G25    29.85F HX  83
MINERAL POINT  FAIR      82  46  28 W10       29.87F HX  81
MADISON        PTSUNNY   81  56  42 SW10      29.84F HX  81
MIDDLETON      FAIR      82  56  40 W7        29.86S HX  81
WATERTOWN      FAIR      81  58  45 SW14G20   29.84S HX  81
MONROE         FAIR      81  52  36 W15       29.87S HX  80
JANESVILLE     MOSUNNY   84  61  45 SW14G20   29.85F HX  84
$$

WIZ051-052-058>065-066-070>072-262100-
SOUTHEAST WISCONSIN

CITY           SKY/WX    TMP DP  RH WIND       PRES   REMARKS
MILWAUKEE      PTSUNNY   82  60  47 SW16      29.85F HX  82
WAUKESHA       MOSUNNY   79  61  53 SW15G23   29.86F HX  80
MILWAUKEE/TIMM MOSUNNY  N/A N/A N/A SW15G22   29.85S
RACINE         FAIR      83  62  49 W13       29.87F HX  84
BURLINGTON     FAIR      81  58  45 SW15      29.86F HX  81
KENOSHA        FAIR      82  62  50 SW15G22   29.86F HX  83
FOND DU LAC    FAIR      82  58  43 W13G21    29.83S HX  82
SHEBOYGAN      FAIR      82  61  48 SW18      29.83R HX  83
WEST BEND      FAIR      81  55  41 W15G21    29.85S HX  80
JUNEAU         FAIR      80  60  50 SW15G23   29.86S HX  81
$$

LSZ147-162-262100-
LAKE SUPERIOR

STATION/POSITION TIME  TEMP    WIND        PRES    WAVE
                       AIR SEA DIR/SP/G            HT/PER
                 (UTC) (F)     (DEG/KT/KT) (MB)    (FT/S)
W MID LAKE BUOY  1950   41 38   40/  8/ 10 1009.8R   1/ 4
DEVILS ISLAND    2000   44      20/  5/  6 1010.6R
PORT WING        1740   42     330/  4/  4 1010.2
SAXON HARBOR     1900   58      40/  1/  3 1008.8F
$$

LMZ867-665-643>646-262100-
LAKE MICHIGAN

STATION/POSITION TIME  TEMP    WIND        PRES    WAVE
                       AIR SEA DIR/SP/G            HT/PER
                 (UTC) (F)     (DEG/KT/KT) (MB)    (FT/S)
CHAMBERS ISLAND  1900   61     310/  7/  8 1009.5R
N MID LAKE BUOY  1950   50 45  200/ 14/ 16 1009.2F   1/ 4
NORTHPORT PIER   1900   53     160/  9/ 14 1009.8R
SISTER BAY       1949   65     220/  8/ 10   N/A
ALGOMA LAKESHORE 1902          220/  7/  8   N/A
KEWAUNEE LAKESHO 1900   56     170/ 13/ 17 1008.7F
SHEBOYGAN LAKESH 2000   58     160/ 21/ 23 1010.4R
PORT WASHINGTON  1900   64     180/  8/ 12 1011.2S
S MID LAKE BUOY  1950   55 49  180/  8/ 10 1011.6R   1/ 3
KENOSHA   LAKESH 2000   82     220/  9/ 14 1010.8F
$$

TC  - TEMPERATURE IN CELSIUS
VSB - VISIBILITY IN STATUTE MILES
WCI - WIND CHILL INDEX
HX  - HEAT INDEX




USA.gov is the U.S. government's official web portal to all federal, state and local government web resources and services.